CDT,Max TemperatureF,Mean TemperatureF,Min TemperatureF,Max Dew PointF,MeanDew PointF,Min DewpointF,Max Humidity, Mean Humidity, Min Humidity, Max Sea Level PressureIn, Mean Sea Level PressureIn, Min Sea Level PressureIn, Max VisibilityMiles, Mean VisibilityMiles, Min VisibilityMiles, Max Wind SpeedMPH, Mean Wind SpeedMPH, Max Gust SpeedMPH,PrecipitationIn, CloudCover, Events, WindDirDegrees
2012-10-1,73,62,50,52,45,36,88,56,35,30.08,30.02,29.93,10,10,10,29,12,34,0.00,3,Thunderstorm,360
2012-10-2,73,54,35,39,34,28,81,50,23,30.07,29.98,29.87,10,10,10,12,8,16,0.00,0,,249
2012-10-3,84,64,44,54,45,36,76,51,33,29.98,29.84,29.76,10,10,2,20,9,26,0.00,0,,186
2012-10-4,64,54,44,43,31,27,62,46,33,30.32,30.23,30.01,10,10,10,28,18,36,0.00,3,,10
2012-10-5,46,42,37,34,30,27,81,62,46,30.35,30.30,30.25,10,10,2,17,10,20,0.00,3,,33
2012-10-6,42,36,30,34,31,27,93,73,57,30.37,30.34,30.29,10,10,6,14,7,20,0.01,7,,14
2012-10-7,51,37,23,37,29,18,100,75,47,30.34,30.23,30.09,10,8,0,16,7,23,0.00,4,,235
2012-10-8,73,52,32,39,31,27,87,54,18,30.09,29.95,29.84,10,10,9,22,10,25,0.00,0,,214
2012-10-9,60,48,35,39,32,21,81,54,35,30.20,29.96,29.79,10,10,5,30,11,38,0.00,0,,9
2012-10-10,66,46,26,32,27,21,80,49,26,30.26,30.16,30.04,10,10,9,16,6,22,0.00,0,,228
2012-10-11,73,56,39,48,39,28,76,54,37,30.22,30.04,29.98,10,10,10,21,9,30,0.00,0,,97
2012-10-12,51,48,46,48,35,27,88,62,46,30.25,30.16,29.94,10,10,2,18,13,22,0.01,8,,99
2012-10-13,75,63,51,63,55,43,94,76,38,29.96,29.75,29.60,10,9,0,25,11,33,0.78,4,Thunderstorm,217
2012-10-14,73,62,51,46,41,37,72,48,29,30.11,29.99,29.66,10,10,10,22,14,28,0.00,1,,314
2012-10-15,82,62,42,48,43,37,82,55,23,30.06,29.92,29.75,10,10,10,16,6,20,0.00,0,,226
2012-10-16,78,62,46,46,44,41,82,54,28,29.74,29.64,29.48,10,10,8,14,6,,0.00,0,,222
2012-10-17,64,52,41,46,32,18,77,41,20,29.85,29.65,29.43,10,10,10,30,13,40,0.00,1,,317
2012-10-18,60,50,41,23,19,16,46,29,19,29.91,29.87,29.82,10,7,2,38,18,50,0.00,4,,299
2012-10-19,66,52,39,25,17,10,46,28,12,29.96,29.88,29.80,10,10,9,22,13,29,0.00,0,,308
2012-10-20,84,58,33,43,32,23,70,41,15,29.80,29.72,29.64,10,10,7,14,5,17,0.00,0,,191
2012-10-21,78,60,41,57,49,36,93,70,41,29.72,29.68,29.64,10,9,2,15,5,18,0.00,0,,120
2012-10-22,62,55,48,55,47,43,88,71,59,29.87,29.80,29.70,10,9,5,16,10,,0.00,6,,339
2012-10-23,73,60,46,55,49,45,100,76,46,29.77,29.70,29.67,10,6,0,13,7,,0.00,3,,85
2012-10-24,62,52,42,54,47,37,94,83,62,29.80,29.73,29.66,10,7,0,18,9,23,0.00,6,Thunderstorm,360
2012-10-25,48,39,30,43,30,25,87,66,40,30.36,30.10,29.72,10,10,3,30,21,39,0.00,5,,1
2012-10-26,42,33,24,25,22,18,86,64,45,30.55,30.44,30.36,10,10,10,15,9,22,0.00,4,,4
2012-10-27,48,36,23,27,21,16,80,61,34,30.38,30.27,30.16,10,10,10,15,5,21,0.00,1,,164
2012-10-28,57,40,23,30,24,16,80,54,31,30.23,30.17,30.09,10,10,10,17,7,21,0.00,4,,164
2012-10-29,69,52,35,36,30,25,65,45,27,30.13,30.07,29.99,10,10,10,17,10,23,0.00,1,,191
2012-10-30,69,56,42,37,35,30,66,49,31,30.03,29.97,29.93,10,10,10,17,8,21,0.00,0,,342
2012-10-31,71,50,30,41,34,27,87,59,29,30.06,30.02,29.97,10,10,10,10,4,,0.00,0,,324